CHALLENGER

Last updated on Mon Aug 13 2018 00:15:06 GMT+0000 (Coordinated Universal Time)

1 42721U 98067MA 18224.59980250 .12090849 12543-4 42456-3 0 9997 2 42721 51.6121 42.1184 0010981 284.9336 75.0476 16.43490172 69841

Satellite not in orbit